N4XWC Weather Reports


Display with metric or nautical units.
time (UTC)temp
F
wind
direction
speed
MPH
gust
MPH
rain 1hr
in
rain 24hr
in
rain mn
in
humidity
%
barometer
mb
20200925024613 65 97 2.0 2.0 0.02 1.60 1.57 100 1010.8
20200925024447 65 107 2.0 3.0 0.02 1.60 1.57 100 1010.8
20200925024117 65 116 0.0 4.0 0.02 1.60 1.57 100 1010.7
20200925023615 66 99 2.0 2.0 0.02 1.61 1.57 100 1010.7
20200925023448 66 103 2.0 4.0 0.02 1.61 1.57 100 1010.7
20200925023116 66 104 3.0 3.0 0.02 1.61 1.57 100 1010.7
20200925022614 66 152 3.0 3.0 0.02 1.61 1.57 100 1010.6
20200925022447 66 99 2.0 3.0 0.02 1.61 1.57 100 1010.6
20200925022114 66 138 1.0 4.0 0.02 1.61 1.57 100 1010.6
20200925021616 66 148 0.0 3.0 0.01 1.60 1.56 100 1010.6
20200925021446 66 148 0.0 2.0 0.01 1.60 1.56 100 1010.6
20200925021115 66 83 2.0 3.0 0.01 1.60 1.56 100 1010.5
20200925020614 66 145 1.0 2.0 0.01 1.60 1.56 100 1010.5
20200925020448 66 128 1.0 3.0 0.01 1.60 1.56 100 1010.5
20200925020114 66 130 3.0 3.0 0.01 1.60 1.56 100 1010.5
20200925015615 66 126 1.0 3.0 0.02 1.60 1.56 100 1010.4
20200925015448 66 126 1.0 2.0 0.02 1.60 1.56 100 1010.4
20200925015118 66 119 0.0 3.0 0.02 1.60 1.56 100 1010.4
20200925014616 66 114 1.0 3.0 0.03 1.60 1.56 100 1010.4
20200925014449 66 114 2.0 3.0 0.03 1.60 1.56 100 1010.4
20200925014113 66 124 1.0 2.0 0.02 1.59 1.55 100 1010.3
20200925013614 66 95 4.0 4.0 0.03 1.59 1.55 100 1010.3
20200925013450 66 103 3.0 3.0 0.03 1.59 1.55 100 1010.3
20200925013114 66 97 2.0 2.0 0.03 1.59 1.55 100 1010.3
20200925012614 66 104 1.0 5.0 0.05 1.59 1.55 100 1010.1
20200925012447 66 71 2.0 5.0 0.05 1.59 1.55 100 1010.1
20200925012114 66 56 3.0 5.0 0.05 1.59 1.55 100 1010.1
20200925011614 66 112 2.0 3.0 0.05 1.59 1.55 100 1010.1
20200925011451 66 73 4.0 4.0 0.05 1.59 1.55 100 1010.1
20200925011116 66 48 1.0 4.0 0.05 1.59 1.55 100 1010.0
20200925010620 66 73 3.0 3.0 0.05 1.59 1.55 100 1010.0
20200925010448 66 23 0.0 1.0 0.05 1.59 1.55 100 1010.0
20200925010118 66 7 3.0 4.0 0.05 1.59 1.55 100 1010.0
20200925005615 66 356 1.0 2.0 0.06 1.59 1.55 100 1010.0
20200925005447 66 354 2.0 3.0 0.05 1.58 1.54 100 1010.0
20200925005116 66 359 1.0 2.0 0.05 1.58 1.54 100 1010.0
20200925004615 66 356 2.0 2.0 0.05 1.58 1.54 100 1010.0
20200925004450 66 357 0.0 0.0 0.05 1.58 1.54 100 1010.0
20200925004115 66 357 0.0 2.0 0.04 1.57 1.53 100 1009.7
20200925003614 66 4 3.0 3.0 0.05 1.57 1.53 100 1009.7
20200925003447 66 0 1.0 2.0 0.04 1.56 1.52 100 1009.7
20200925003114 66 28 7.0 7.0 0.04 1.56 1.52 100 1009.7
20200925002623 66 14 1.0 4.0 0.05 1.55 1.51 100 1009.5
20200925002447 66 37 2.0 4.0 0.05 1.55 1.51 100 1009.5
20200925002116 66 18 1.0 4.0 0.05 1.55 1.51 100 1009.5
20200925001614 66 21 2.0 6.0 0.07 1.54 1.50 100 1009.5
20200925001446 66 3 3.0 5.0 0.07 1.54 1.50 100 1009.5
20200925001114 66 0 2.0 4.0 0.07 1.54 1.50 100 1009.4
20200925000623 66 78 2.0 5.0 0.09 1.54 1.50 100 1009.4
20200925000446 66 1 3.0 7.0 0.09 1.54 1.50 100 1009.4
20200925000116 66 3 5.0 6.0 0.09 1.54 1.50 100 1009.4
20200924235617 66 10 4.0 4.0 0.11 1.54 1.50 100 1009.4
20200924235446 66 13 2.0 5.0 0.11 1.54 1.50 100 1009.4
20200924235116 66 0 2.0 4.0 0.11 1.54 1.50 100 1009.4
20200924234623 66 0 2.0 3.0 0.12 1.53 1.49 100 1009.4
20200924234449 66 20 2.0 5.0 0.12 1.53 1.49 100 1009.4
20200924234119 66 0 2.0 3.0 0.12 1.53 1.49 100 1009.3
20200924233616 66 49 1.0 5.0 0.16 1.53 1.49 100 1009.3
20200924233446 66 0 1.0 6.0 0.15 1.52 1.48 100 1009.3
20200924233117 66 37 2.0 5.0 0.15 1.52 1.48 100 1009.3
20200924232614 66 49 3.0 10.0 0.18 1.51 1.48 100 1009.4
20200924232446 66 14 5.0 5.0 0.18 1.51 1.47 100 1009.4
20200924232114 66 1 3.0 4.0 0.17 1.50 1.47 100 1009.4
20200924231614 66 45 2.0 3.0 0.21 1.49 1.45 100 1009.4
20200924231447 66 11 2.0 3.0 0.20 1.48 1.44 100 1009.4
20200924231116 66 1 2.0 5.0 0.19 1.47 1.43 100 1009.3
20200924230615 66 21 2.0 5.0 0.27 1.46 1.43 100 1009.3
20200924230447 66 32 3.0 4.0 0.27 1.46 1.42 100 1009.3
20200924230113 66 10 3.0 3.0 0.26 1.45 1.41 100 1009.3
20200924225615 66 14 3.0 5.0 0.27 1.44 1.40 100 1009.1
20200924225448 66 8 3.0 3.0 0.26 1.43 1.40 100 1009.1
20200924225115 66 10 3.0 4.0 0.26 1.43 1.39 100 1009.1
20200924224615 67 0 4.0 6.0 0.29 1.44 1.39 100 1009.1
20200924224447 67 28 4.0 6.0 0.29 1.44 1.39 100 1009.1
20200924224120 67 0 4.0 5.0 0.28 1.43 1.38 100 1009.0
20200924223619 67 344 2.0 3.0 0.33 1.41 1.36 100 1009.0
20200924223447 67 359 2.0 3.0 0.32 1.40 1.35 100 1009.0
20200924223115 67 65 4.0 4.0 0.31 1.39 1.34 100 1009.0
20200924222620 67 65 1.0 2.0 0.37 1.37 1.32 100 1009.3
20200924222451 67 80 1.0 2.0 0.36 1.36 1.32 100 1009.3
20200924222113 67 88 2.0 2.0 0.35 1.35 1.30 100 1009.3
20200924221624 67 88 0.0 2.0 0.35 1.33 1.28 100 1009.3
20200924221445 67 65 2.0 4.0 0.34 1.32 1.27 100 1009.3
20200924221119 66 295 2.0 2.0 0.32 1.30 1.25 100 1008.9
20200924220629 66 295 1.0 4.0 0.33 1.26 1.21 100 1008.9
20200924220447 66 298 3.0 8.0 0.30 1.23 1.18 100 1008.9
20200924220114 66 285 3.0 5.0 0.27 1.20 1.15 100 1008.9
20200924215616 66 106 3.0 9.0 0.29 1.19 1.14 100 1008.4
20200924215447 66 86 6.0 7.0 0.29 1.19 1.14 100 1008.4
20200924215115 66 128 7.0 10.0 0.28 1.18 1.13 100 1008.4
20200924214623 66 71 4.0 8.0 0.29 1.17 1.12 100 1008.4
20200924214447 66 66 3.0 10.0 0.28 1.16 1.11 100 1008.4
20200924214116 67 109 5.0 7.0 0.27 1.15 1.10 100 1008.6
20200924213614 67 79 3.0 5.0 0.29 1.13 1.08 100 1008.6
20200924213446 67 17 3.0 7.0 0.27 1.11 1.07 100 1008.6
20200924213118 67 126 3.0 6.0 0.25 1.09 1.04 100 1008.6
20200924212619 66 82 4.0 5.0 0.22 1.06 1.01 100 1008.7
20200924212450 66 155 3.0 5.0 0.20 1.04 0.99 100 1008.7
20200924212113 66 134 1.0 5.0 0.17 1.01 0.96 100 1008.7
20200924211617 66 127 2.0 3.0 0.15 0.99 0.94 100 1008.7
20200924211447 66 144 2.0 6.0 0.14 0.98 0.93 100 1008.7
20200924211115 66 17 5.0 5.0 0.14 0.98 0.93 100 1008.9
20200924210614 66 37 3.0 3.0 0.12 0.96 0.91 100 1008.9
20200924210446 66 89 4.0 7.0 0.11 0.95 0.90 100 1008.9
20200924210117 66 80 1.0 7.0 0.09 0.93 0.88 100 1008.9
20200924205619 66 83 5.0 5.0 0.06 0.90 0.86 100 1008.9
20200924205448 66 160 3.0 5.0 0.06 0.90 0.85 100 1008.9
20200924205114 66 100 2.0 2.0 0.06 0.90 0.85 100 1008.9
20200924204613 66 154 9.0 9.0 0.05 0.89 0.84 100 1008.9
20200924204448 66 0 2.0 3.0 0.05 0.89 0.84 100 1008.9
20200924204114 66 97 2.0 7.0 0.04 0.88 0.83 100 1009.0
20200924203617 66 121 3.0 14.0 0.02 0.86 0.82 100 1009.0
20200924203447 66 82 8.0 12.0 0.02 0.86 0.81 100 1009.0
20200924203114 66 160 4.0 8.0 0.01 0.85 0.80 100 1009.0
20200924202618 66 176 6.0 10.0 0.00 0.84 0.79 100 1009.2
20200924202446 66 90 10.0 14.0 0.00 0.84 0.79 100 1009.2
20200924202117 66 107 3.0 9.0 0.00 0.84 0.79 100 1009.2
20200924201618 66 49 3.0 10.0 0.00 0.84 0.79 100 1009.2
20200924201449 66 178 5.0 10.0 0.00 0.84 0.79 100 1009.2
20200924201114 66 89 11.0 11.0 0.00 0.84 0.79 100 1009.4
20200924200618 66 126 9.0 10.0 0.01 0.84 0.79 100 1009.4
20200924200449 66 128 6.0 7.0 0.01 0.84 0.79 100 1009.4
20200924200114 66 78 4.0 11.0 0.01 0.84 0.79 100 1009.4
20200924195614 66 134 4.0 10.0 0.01 0.84 0.79 100 1009.7
20200924195448 66 152 2.0 7.0 0.01 0.84 0.79 100 1009.7
20200924195113 66 117 11.0 11.0 0.01 0.84 0.79 100 1009.7
20200924194624 66 143 3.0 7.0 0.01 0.84 0.79 100 1009.7
20200924194447 66 95 4.0 10.0 0.01 0.84 0.79 100 1009.7
20200924194115 66 97 4.0 5.0 0.01 0.84 0.79 100 1010.2
20200924193613 66 80 3.0 3.0 0.01 0.84 0.79 100 1010.2
20200924193445 66 143 7.0 10.0 0.01 0.84 0.79 100 1010.2
20200924193115 66 169 5.0 11.0 0.01 0.84 0.79 100 1010.2
20200924192614 66 112 6.0 6.0 0.01 0.84 0.79 100 1010.3
20200924192446 66 119 7.0 7.0 0.01 0.84 0.79 100 1010.3
20200924192113 66 162 3.0 7.0 0.01 0.84 0.79 100 1010.3
20200924191613 66 151 3.0 10.0 0.01 0.84 0.79 100 1010.3
20200924191446 66 89 6.0 9.0 0.01 0.84 0.79 100 1010.3
20200924191118 66 82 8.0 10.0 0.01 0.84 0.79 100 1010.7
20200924190613 66 116 2.0 11.0 0.15 0.83 0.78 100 1010.7
20200924190447 66 151 4.0 7.0 0.15 0.83 0.78 100 1010.7
20200924190118 65 130 6.0 9.0 0.15 0.83 0.78 100 1010.7
20200924185615 65 116 4.0 5.0 0.15 0.83 0.78 100 1010.7
20200924185448 65 136 0.0 6.0 0.15 0.83 0.78 100 1010.7
20200924185115 65 141 4.0 8.0 0.15 0.83 0.78 100 1010.7
20200924184614 65 136 3.0 10.0 0.15 0.83 0.78 100 1010.7
20200924184448 65 123 5.0 8.0 0.15 0.83 0.78 100 1010.7
20200924184114 65 143 5.0 9.0 0.15 0.83 0.78 100 1011.1
20200924183614 65 141 4.0 10.0 0.15 0.83 0.78 100 1011.1
20200924183448 65 165 2.0 5.0 0.15 0.83 0.78 100 1011.1
20200924183115 65 192 4.0 8.0 0.15 0.83 0.78 100 1011.1
20200924182618 64 104 2.0 10.0 0.15 0.83 0.78 100 1011.3
20200924182446 64 126 6.0 9.0 0.15 0.83 0.78 100 1011.3
20200924182117 64 150 3.0 5.0 0.15 0.83 0.78 100 1011.3
20200924181615 64 99 9.0 9.0 0.16 0.83 0.78 100 1011.3
20200924181446 64 114 7.0 7.0 0.16 0.83 0.78 100 1011.3
20200924181115 64 68 5.0 10.0 0.16 0.83 0.78 100 1011.7
20200924180618 64 110 7.0 10.0 0.16 0.82 0.77 100 1011.7
20200924180448 64 95 2.0 9.0 0.13 0.79 0.75 100 1011.7
20200924180114 64 34 3.0 6.0 0.04 0.70 0.66 100 1011.7
20200924175614 64 131 2.0 7.0 0.02 0.68 0.63 100 1011.8
20200924175447 64 109 1.0 10.0 0.02 0.68 0.63 100 1011.8
20200924175115 64 127 7.0 8.0 0.02 0.68 0.63 100 1011.8
20200924174617 64 58 1.0 9.0 0.02 0.68 0.63 100 1011.8
20200924174447 64 100 1.0 7.0 0.02 0.68 0.63 100 1011.8
20200924174113 64 162 0.0 3.0 0.02 0.68 0.63 100 1012.3
20200924173613 64 72 6.0 11.0 0.03 0.68 0.63 100 1012.3
20200924173448 64 107 9.0 11.0 0.03 0.68 0.63 100 1012.3
20200924173115 63 89 4.0 5.0 0.03 0.68 0.63 100 1012.3
20200924172616 63 127 10.0 10.0 0.04 0.68 0.63 100 1012.4
20200924172448 63 130 9.0 10.0 0.04 0.68 0.63 100 1012.4
20200924172114 63 103 11.0 11.0 0.04 0.68 0.63 100 1012.4
20200924171614 63 137 4.0 10.0 0.13 0.67 0.62 100 1012.4
20200924171446 63 92 6.0 11.0 0.13 0.67 0.62 100 1012.4
20200924171115 63 56 5.0 7.0 0.13 0.67 0.62 100 1012.7
20200924170615 63 92 4.0 10.0 0.21 0.66 0.62 100 1012.7
20200924170447 63 124 7.0 10.0 0.21 0.66 0.61 100 1012.7
20200924170116 63 136 3.0 7.0 0.21 0.66 0.61 100 1012.7
20200924165615 63 141 2.0 5.0 0.26 0.66 0.61 100 1012.8
20200924165446 63 106 3.0 8.0 0.26 0.66 0.61 100 1012.8
20200924165115 63 124 1.0 3.0 0.26 0.66 0.61 100 1012.8
20200924164614 63 52 8.0 9.0 0.32 0.66 0.61 100 1012.8
20200924164448 63 103 5.0 5.0 0.32 0.66 0.61 100 1012.8
20200924164115 63 103 3.0 6.0 0.32 0.66 0.61 100 1013.2
20200924163616 63 61 3.0 9.0 0.31 0.65 0.61 100 1013.2
20200924163447 63 80 1.0 3.0 0.31 0.65 0.60 100 1013.2
20200924163114 62 128 2.0 6.0 0.31 0.65 0.60 100 1013.2
20200924162616 62 41 2.0 9.0 0.31 0.65 0.60 100 1013.3
20200924162447 62 78 5.0 5.0 0.31 0.65 0.60 100 1013.3
20200924162116 62 28 5.0 6.0 0.30 0.64 0.59 100 1013.3
20200924161614 62 83 4.0 6.0 0.27 0.61 0.57 100 1013.3
20200924161447 62 90 2.0 7.0 0.24 0.58 0.54 100 1013.3
20200924161117 62 13 1.0 8.0 0.20 0.54 0.50 100 1013.6
20200924160613 62 79 4.0 7.0 0.15 0.49 0.45 100 1013.6
20200924160447 62 102 3.0 6.0 0.14 0.48 0.43 100 1013.6
20200924160114 62 66 2.0 3.0 0.12 0.46 0.41 100 1013.6
20200924155614 62 65 4.0 7.0 0.10 0.44 0.39 100 1013.6
20200924155450 62 112 5.0 7.0 0.09 0.43 0.38 100 1013.6
20200924155115 62 127 5.0 7.0 0.08 0.42 0.37 100 1013.6
20200924154613 62 79 4.0 7.0 0.03 0.37 0.32 100 1013.6
20200924154447 62 78 1.0 7.0 0.00 0.34 0.30 100 1013.6
20200924154114 62 114 5.0 5.0 0.00 0.34 0.29 100 1013.5
20200924153615 62 99 2.0 6.0 0.00 0.34 0.29 100 1013.5
20200924153449 62 154 1.0 6.0 0.00 0.34 0.29 100 1013.5
20200924153113 62 56 4.0 5.0 0.00 0.34 0.29 100 1013.5
20200924152831 62 71 4.0 10.0 0.00 0.34 0.29 100 1013.5
20200924152446 62 97 5.0 11.0 0.00 0.34 0.29 100 1013.5
20200924152333 62 114 6.0 10.0 0.00 0.34 0.29 100 1013.5
20200924151833 62 68 7.0 8.0 0.00 0.34 0.29 100 1013.5
20200924151447 62 102 10.0 11.0 0.00 0.34 0.29 100 1013.5
20200924151331 61 92 3.0 10.0 0.00 0.34 0.29 100 1013.7
20200924150833 61 75 2.0 7.0 0.00 0.34 0.29 100 1013.7
20200924150447 61 110 5.0 7.0 0.00 0.34 0.29 100 1013.7
20200924150334 61 121 10.0 10.0 0.00 0.34 0.29 100 1013.7
20200924145832 61 61 3.0 10.0 0.00 0.34 0.29 100 1014.0
20200924145447 61 65 3.0 9.0 0.00 0.34 0.29 100 1014.0
20200924145330 61 114 3.0 10.0 0.00 0.34 0.29 100 1014.0
20200924144831 61 55 3.0 7.0 0.01 0.34 0.29 100 1014.0
20200924144446 61 130 5.0 10.0 0.01 0.34 0.29 100 1014.0
20200924144333 61 124 6.0 9.0 0.01 0.34 0.29 100 1014.0
20200924143832 60 154 5.0 5.0 0.02 0.34 0.29 100 1014.0
20200924143446 60 150 4.0 4.0 0.02 0.34 0.29 100 1014.0
20200924143331 60 113 2.0 10.0 0.02 0.34 0.29 100 1014.0
20200924142831 60 151 3.0 10.0 0.02 0.34 0.29 100 1014.1
20200924142448 60 121 10.0 10.0 0.02 0.34 0.29 100 1014.1
20200924142331 60 106 9.0 10.0 0.02 0.34 0.29 100 1014.1
20200924141831 60 104 3.0 10.0 0.02 0.34 0.29 100 1014.1
20200924141446 60 82 10.0 10.0 0.02 0.34 0.29 100 1014.1
20200924141332 60 106 5.0 5.0 0.02 0.34 0.29 100 1014.3
20200924140839 60 119 5.0 6.0 0.02 0.34 0.29 100 1014.3
20200924140446 60 78 6.0 9.0 0.02 0.34 0.29 100 1014.3
20200924140331 60 80 5.0 10.0 0.02 0.34 0.29 100 1014.3
20200924135832 60 136 6.0 7.0 0.02 0.34 0.29 100 1014.4
20200924135448 60 116 2.0 6.0 0.02 0.34 0.29 100 1014.4
20200924135332 60 42 1.0 3.0 0.02 0.34 0.29 100 1014.4
20200924134832 60 148 5.0 7.0 0.02 0.34 0.29 100 1014.4
20200924134447 60 83 2.0 7.0 0.02 0.34 0.29 100 1014.4
20200924134333 60 140 3.0 7.0 0.02 0.34 0.29 100 1014.1
20200924133831 60 152 6.0 12.0 0.00 0.32 0.28 100 1014.1
20200924133450 60 116 2.0 4.0 0.00 0.32 0.27 100 1014.1
20200924133332 60 95 7.0 9.0 0.00 0.32 0.27 100 1014.1
20200924132833 60 102 2.0 10.0 0.01 0.32 0.27 100 1013.9
20200924132448 60 144 9.0 10.0 0.01 0.32 0.27 100 1013.9
20200924132334 60 150 1.0 5.0 0.01 0.32 0.27 100 1013.9
20200924131832 60 133 2.0 5.0 0.02 0.32 0.27 100 1013.9
20200924131447 59 103 11.0 11.0 0.02 0.32 0.27 100 1013.9
20200924131332 59 114 2.0 10.0 0.02 0.32 0.27 100 1014.1
20200924130832 59 113 13.0 14.0 0.02 0.32 0.27 100 1014.1
20200924130446 59 24 2.0 2.0 0.02 0.32 0.27 100 1014.1
20200924130333 59 24 2.0 3.0 0.02 0.32 0.27 100 1014.1
20200924125834 59 97 5.0 8.0 0.04 0.32 0.27 100 1013.9
20200924125447 59 130 9.0 11.0 0.04 0.32 0.27 100 1013.9
20200924125331 59 103 5.0 9.0 0.04 0.32 0.27 100 1013.9
20200924124836 59 175 5.0 15.0 0.06 0.32 0.27 100 1013.9
20200924124445 59 127 7.0 10.0 0.06 0.32 0.27 100 1013.9
20200924124332 59 133 10.0 10.0 0.06 0.32 0.27 100 1013.8
20200924123832 59 106 4.0 10.0 0.06 0.32 0.27 100 1013.8
20200924123448 59 116 4.0 10.0 0.06 0.32 0.27 100 1013.8
20200924123331 59 104 4.0 11.0 0.06 0.32 0.27 100 1013.8
20200924122832 59 148 5.0 9.0 0.05 0.31 0.26 100 1013.9
20200924122447 59 117 14.0 14.0 0.05 0.31 0.26 100 1013.9
20200924122342 59 119 3.0 7.0 0.05 0.31 0.26 100 1013.9
20200924121830 59 56 9.0 14.0 0.05 0.31 0.26 100 1013.9
20200924121448 59 123 10.0 10.0 0.04 0.30 0.25 100 1013.9
20200924121334 59 96 2.0 5.0 0.04 0.30 0.25 100 1014.1
20200924120833 58 147 5.0 6.0 0.04 0.30 0.25 100 1014.1
20200924120447 58 102 1.0 6.0 0.04 0.30 0.25 100 1014.1
20200924120338 58 93 5.0 6.0 0.04 0.30 0.25 100 1014.1
20200924115831 58 123 4.0 4.0 0.04 0.30 0.25 100 1013.3
20200924115454 58 164 3.0 12.0 0.04 0.30 0.25 100 1013.3
20200924115332 58 136 3.0 9.0 0.03 0.29 0.24 100 1013.3
20200924114836 58 58 9.0 11.0 0.02 0.28 0.23 100 1013.3
20200924114446 58 83 5.0 12.0 0.01 0.27 0.22 100 1013.3
20200924114330 58 136 9.0 10.0 0.00 0.26 0.21 100 1014.0
20200924113833 58 123 2.0 6.0 0.01 0.26 0.21 100 1014.0
20200924113447 58 144 6.0 6.0 0.01 0.26 0.21 100 1014.0
20200924113332 58 128 2.0 5.0 0.01 0.26 0.21 100 1014.0
20200924112837 58 126 6.0 7.0 0.01 0.26 0.21 100 1014.0
20200924112446 58 68 2.0 10.0 0.01 0.26 0.21 100 1014.0
20200924112335 58 127 3.0 7.0 0.01 0.26 0.21 100 1014.0
20200924111832 58 140 5.0 7.0 0.01 0.26 0.21 100 1014.0
20200924111447 58 120 4.0 6.0 0.01 0.26 0.21 100 1014.0
20200924111331 58 121 3.0 7.0 0.01 0.26 0.21 100 1013.9
20200924110832 58 117 3.0 7.0 0.01 0.26 0.21 100 1013.9
20200924110448 57 65 3.0 5.0 0.01 0.26 0.21 100 1013.9
20200924110333 57 79 5.0 5.0 0.01 0.26 0.21 100 1013.9
20200924105831 57 83 3.0 6.0 0.01 0.26 0.21 100 1014.3
20200924105448 57 76 3.0 5.0 0.01 0.26 0.21 100 1014.3
20200924105332 57 68 3.0 6.0 0.01 0.26 0.21 100 1014.3
20200924104830 57 21 2.0 6.0 0.01 0.26 0.21 100 1014.3
20200924104447 57 96 0.0 6.0 0.01 0.26 0.21 100 1014.3
20200924104332 57 124 5.0 5.0 0.01 0.26 0.21 100 1014.2
20200924103832 57 85 3.0 6.0 0.00 0.25 0.20 100 1014.2
20200924103450 57 112 7.0 7.0 0.00 0.25 0.20 100 1014.2
20200924103333 57 112 7.0 7.0 0.00 0.25 0.20 100 1014.2
20200924102831 57 123 2.0 2.0 0.01 0.25 0.20 100 1013.9
20200924102446 57 102 4.0 6.0 0.01 0.25 0.20 100 1013.9
20200924102343 57 121 1.0 6.0 0.01 0.25 0.20 100 1013.9
20200924101832 57 113 4.0 6.0 0.02 0.25 0.20 100 1013.9
20200924101448 57 131 7.0 7.0 0.02 0.25 0.20 100 1013.9
20200924101333 57 143 2.0 4.0 0.02 0.25 0.20 100 1013.8
20200924100830 57 123 4.0 6.0 0.02 0.25 0.20 100 1013.8
20200924100447 57 90 4.0 4.0 0.02 0.25 0.20 100 1013.8
20200924100331 57 128 2.0 5.0 0.02 0.25 0.20 100 1013.8
20200924095831 56 121 2.0 8.0 0.02 0.25 0.20 100 1013.4
20200924095447 56 119 1.0 5.0 0.02 0.25 0.20 100 1013.4
20200924095332 56 75 5.0 14.0 0.02 0.25 0.20 100 1013.4
20200924094832 56 144 6.0 7.0 0.05 0.25 0.20 100 1013.4
20200924094447 56 79 4.0 4.0 0.05 0.25 0.20 100 1013.4
20200924094330 56 79 4.0 8.0 0.05 0.25 0.20 100 1013.9
20200924093830 56 113 6.0 8.0 0.07 0.25 0.20 100 1013.9
20200924093447 56 143 14.0 14.0 0.07 0.25 0.20 100 1013.9
20200924093330 56 104 11.0 11.0 0.07 0.25 0.20 100 1013.9
20200924092830 56 96 4.0 8.0 0.07 0.25 0.20 100 1014.2
20200924092445 56 103 3.0 6.0 0.06 0.24 0.19 100 1014.2
20200924092333 56 143 4.0 10.0 0.06 0.24 0.19 100 1014.2
20200924091831 56 167 1.0 3.0 0.05 0.23 0.18 100 1014.2
20200924091446 56 104 1.0 6.0 0.05 0.23 0.18 100 1014.2
20200924091332 56 80 6.0 9.0 0.05 0.23 0.18 100 1014.2
20200924090832 56 138 5.0 7.0 0.05 0.23 0.18 100 1014.2
20200924090453 56 103 4.0 11.0 0.05 0.23 0.18 100 1014.2
20200924090332 56 109 1.0 10.0 0.05 0.23 0.18 100 1014.2
20200924085832 56 90 3.0 9.0 0.05 0.23 0.18 100 1014.5
20200924085451 56 75 3.0 7.0 0.05 0.23 0.18 100 1014.5
20200924085331 56 124 6.0 9.0 0.05 0.23 0.18 100 1014.5
20200924084831 56 100 4.0 6.0 0.04 0.22 0.17 100 1014.5
20200924084447 56 140 4.0 5.0 0.03 0.21 0.16 100 1014.5
20200924084332 56 90 1.0 6.0 0.03 0.21 0.16 100 1014.7
20200924083831 56 116 5.0 9.0 0.01 0.19 0.14 100 1014.7
20200924083447 56 119 4.0 7.0 0.01 0.19 0.14 100 1014.7
20200924083337 56 75 5.0 5.0 0.01 0.19 0.14 100 1014.7
20200924082832 56 104 1.0 3.0 0.00 0.18 0.13 100 1014.0
20200924082446 56 100 8.0 9.0 0.00 0.18 0.13 100 1014.0
20200924082331 56 107 3.0 6.0 0.00 0.18 0.13 100 1014.0
20200924081834 56 112 8.0 10.0 0.00 0.18 0.13 100 1014.0
20200924081446 55 96 3.0 9.0 0.00 0.18 0.13 100 1014.0
20200924081330 55 131 5.0 10.0 0.00 0.18 0.13 100 1014.5
20200924080833 55 99 3.0 7.0 0.01 0.18 0.13 100 1014.5
20200924080446 55 121 3.0 7.0 0.01 0.18 0.13 100 1014.5
20200924080338 55 110 2.0 2.0 0.01 0.18 0.13 100 1014.5
20200924075831 55 148 3.0 6.0 0.02 0.18 0.13 100 1014.0
20200924075447 55 90 2.0 9.0 0.02 0.18 0.13 100 1014.0
20200924075335 55 126 6.0 6.0 0.02 0.18 0.13 100 1014.0
20200924074832 55 97 2.0 10.0 0.03 0.18 0.13 100 1014.0
20200924074446 55 73 1.0 10.0 0.03 0.18 0.13 99 1014.0
20200924074330 55 100 4.0 10.0 0.03 0.18 0.13 99 1014.7
20200924073832 55 92 3.0 9.0 0.05 0.18 0.13 99 1014.7
20200924073447 55 93 7.0 7.0 0.05 0.18 0.13 99 1014.7
20200924073330 55 144 3.0 5.0 0.05 0.18 0.13 99 1014.7
20200924072831 55 73 4.0 7.0 0.10 0.18 0.13 99 1014.8
20200924072446 55 344 3.0 9.0 0.10 0.18 0.13 99 1014.8
20200924072332 55 99 6.0 6.0 0.10 0.18 0.13 99 1014.8
20200924071832 55 80 5.0 5.0 0.10 0.18 0.13 99 1014.8
20200924071453 55 141 1.0 7.0 0.10 0.18 0.13 99 1014.8
20200924071451 55 141 1.0 7.0 0.10 0.18 0.13 99 101.4
20200924071447 55 141 1.0 7.0 0.10 0.18 0.13 99 1014.8
20200924071332 55 110 5.0 6.0 0.10 0.18 0.13 99 1014.8
20200924070833 55 114 2.0 8.0 0.11 0.18 0.13 99 1014.8
20200924070446 55 114 2.0 10.0 0.11 0.18 0.13 99 1014.8
20200924070332 55 109 2.0 6.0 0.11 0.18 0.13 99 1014.8
20200924065832 55 182 4.0 11.0 0.10 0.17 0.12 98 1015.1
20200924065448 55 104 7.0 10.0 0.10 0.17 0.12 98 1015.1
20200924065340 55 131 8.0 13.0 0.10 0.17 0.12 98 1015.1
20200924064832 55 107 7.0 9.0 0.09 0.16 0.11 97 1015.1
20200924064447 55 76 3.0 9.0 0.09 0.16 0.11 97 1015.1
20200924064332 55 66 9.0 9.0 0.08 0.15 0.11 97 1015.6
20200924063831 55 120 3.0 10.0 0.09 0.15 0.10 96 1015.6
20200924063446 55 126 2.0 7.0 0.08 0.14 0.09 96 1015.6
20200924063332 55 103 6.0 6.0 0.08 0.14 0.09 96 1015.6
20200924062832 56 110 3.0 9.0 0.07 0.12 0.07 96 1015.9
20200924062447 56 93 3.0 7.0 0.04 0.09 0.04 95 1015.9
20200924062331 56 109 1.0 5.0 0.03 0.08 0.03 95 1015.9
20200924061830 56 109 2.0 3.0 0.03 0.08 0.03 95 1015.9
20200924061447 56 64 1.0 6.0 0.03 0.08 0.03 95 1015.9
20200924061332 56 76 1.0 5.0 0.03 0.08 0.03 95 1015.7
20200924060831 56 88 4.0 5.0 0.03 0.08 0.03 95 1015.7
20200924060449 56 104 6.0 10.0 0.02 0.07 0.02 95 1015.7
20200924060330 56 75 3.0 6.0 0.02 0.07 0.02 95 1015.7
20200924055832 56 42 4.0 10.0 0.02 0.07 0.02 94 1015.8
20200924055450 56 58 5.0 5.0 0.02 0.07 0.02 94 1015.8
20200924055333 56 95 4.0 7.0 0.02 0.07 0.02 94 1015.8
20200924054832 56 88 8.0 10.0 0.02 0.07 0.02 94 1015.8
20200924054447 56 88 4.0 7.0 0.02 0.07 0.02 94 1015.8
20200924054333 56 95 4.0 4.0 0.02 0.07 0.02 94 1015.8
20200924053835 56 72 6.0 8.0 0.03 0.07 0.02 94 1015.8
20200924053449 56 68 5.0 5.0 0.02 0.06 0.01 94 1015.8
20200924053332 56 56 2.0 6.0 0.02 0.06 0.01 94 1015.8
20200924052839 57 68 10.0 10.0 0.02 0.06 0.01 94 1016.1
20200924052448 57 85 2.0 3.0 0.02 0.06 0.01 94 1016.1
20200924052331 57 37 1.0 4.0 0.02 0.06 0.01 94 1016.1
20200924051832 57 93 2.0 5.0 0.01 0.05 0.00 93 1016.1
20200924051448 57 79 4.0 5.0 0.01 0.05 0.00 93 1016.1
20200924051346 57 83 5.0 7.0 0.01 0.05 0.00 93 1016.1
20200924050837 57 62 6.0 6.0 0.01 0.05 0.00 93 1016.1
20200924050449 57 40 0.0 9.0 0.01 0.05 0.00 93 1016.1
20200924050333 57 95 7.0 11.0 0.01 0.05 0.00 93 1016.1
20200924045834 57 86 5.0 5.0 0.01 0.05 0.05 93 1016.3
20200924045447 57 83 9.0 9.0 0.01 0.05 0.05 93 1016.3
20200924045332 57 104 5.0 5.0 0.01 0.05 0.05 93 1016.3
20200924044830 57 78 2.0 4.0 0.01 0.05 0.05 93 1016.3
20200924044446 57 106 4.0 9.0 0.01 0.05 0.05 93 1016.3
20200924044331 57 109 1.0 5.0 0.01 0.05 0.05 93 1016.1
20200924043832 57 69 6.0 7.0 0.01 0.05 0.05 93 1016.1
20200924043446 57 55 4.0 7.0 0.01 0.05 0.05 93 1016.1
20200924043331 57 54 4.0 6.0 0.01 0.05 0.05 93 1016.1
20200924042832 57 58 5.0 5.0 0.01 0.04 0.04 93 1016.3
20200924042449 57 21 4.0 10.0 0.01 0.04 0.04 93 1016.3
20200924042331 57 99 1.0 1.0 0.01 0.04 0.04 93 1016.3
20200924041831 57 354 3.0 3.0 0.01 0.04 0.04 93 1016.3
20200924041448 57 25 4.0 7.0 0.01 0.04 0.04 93 1016.3
20200924041332 57 106 6.0 10.0 0.01 0.04 0.04 93 1016.3
20200924040833 57 95 3.0 4.0 0.01 0.04 0.04 92 1016.3
20200924040447 57 76 5.0 10.0 0.01 0.04 0.04 92 1016.3
20200924040333 57 113 5.0 11.0 0.01 0.04 0.04 92 1016.3
20200924035832 57 64 2.0 7.0 0.02 0.04 0.04 91 1016.9
20200924035448 57 95 6.0 6.0 0.02 0.04 0.04 91 1016.9
20200924035332 57 95 6.0 10.0 0.02 0.04 0.04 91 1016.9
20200924034832 57 40 3.0 6.0 0.02 0.04 0.04 91 1016.9
20200924034449 58 56 3.0 10.0 0.02 0.04 0.04 91 1016.9
20200924034332 58 72 5.0 7.0 0.02 0.04 0.04 91 1017.1
20200924033830 58 20 2.0 5.0 0.03 0.04 0.04 91 1017.1
20200924033447 58 23 3.0 5.0 0.03 0.04 0.04 90 1017.1
20200924033330 58 37 4.0 10.0 0.03 0.04 0.04 90 1017.1
20200924032831 58 55 2.0 5.0 0.03 0.04 0.04 90 1017.0
20200924032451 58 99 5.0 6.0 0.02 0.03 0.03 89 1017.0
20200924032331 58 62 3.0 9.0 0.02 0.03 0.03 89 1017.0
20200924031834 58 51 3.0 9.0 0.02 0.03 0.03 89 1017.0
20200924031449 58 68 6.0 7.0 0.02 0.03 0.03 88 1017.0
20200924031332 58 30 2.0 9.0 0.02 0.03 0.03 88 1017.0
20200924030831 58 97 3.0 4.0 0.02 0.03 0.03 86 1017.0
20200924030446 58 42 3.0 8.0 0.02 0.03 0.03 86 1017.0
20200924030330 59 82 10.0 10.0 0.02 0.03 0.03 86 1017.0
20200924025831 59 48 3.0 7.0 0.01 0.02 0.02 84 1016.8
20200924025446 59 55 3.0 12.0 0.01 0.02 0.02 83 1016.8
20200924025333 59 73 10.0 10.0 0.01 0.02 0.02 83 1016.8